Flag for U.S.A. Weather past 2 weeks in Harrisburg, Pennsylvania, U.S.A.

Now
77 °F

Clear.


Feels Like: 79 °F
Forecast: 72 / 85 °F
Wind: No wind

Location: Capital City Airport

Current Time: Jul 30, 2015 at 4:43:30 AM

Latest Report: Jul 30, 2015 at 3:56 AM


Visibility: 10 mi

Pressure: 29.88 "Hg

Humidity: 82%

Dew point: 71 °F

Location of HarrisburgLocation

Historic Weather in Harrisburg — Graph

°F

Harrisburg temperature yesterday

Maximum temperature yesterday: 91 °F (at 3:56 PM)
Minimum temperature yesterday: 69 °F (at 4:56 AM)
Average temperature yesterday: 81 °F

Past Weeks' High & Low Weather Summary

 TemperatureHumidityPressure
High93 °F (Jul 19, 2:56 PM)94% (Jul 28, 6:56 AM)30.09 "Hg (Jul 28, 6:56 AM)
Low59 °F (Jul 16, 2:56 AM)33% (Jul 22, 4:56 PM)29.55 "Hg (Jul 15, 3:56 AM)
Average76 °F66%29.91 "Hg
* Reported Jul 15 2:56 AM — Jul 30 2:56 AM, Harrisburg, Weather by CustomWeather, © 2015

Note: Actual official high and low records may vary slightly from our data, if they occured in-between our weather recording intervals... More about our weather records

Advertising

Harrisburg weather history for previous 24 hours

 ConditionsComfort  
Time TempWeatherWind HumidityBarometerVisibility
2:56 AM
Thu, Jul 30
78 °FPassing clouds.No wind79%29.91 "Hg10 mi
1:56 AM79 °FClear.No wind77%29.92 "Hg10 mi
12:56 AM80 °FClear.No wind76%29.93 "Hg10 mi
11:56 PM
Wed, Jul 29
80 °FPassing clouds.No wind76%29.93 "Hg10 mi
10:56 PM81 °FClear.3 mph74%29.93 "Hg10 mi
9:56 PM82 °FClear.6 mph72%29.93 "Hg10 mi
8:56 PM83 °FSunny.7 mph70%29.92 "Hg10 mi
7:56 PM85 °FSunny.8 mph68%29.92 "Hg10 mi
6:56 PM86 °FPassing clouds.9 mph63%29.91 "Hg10 mi
5:56 PM89 °FPassing clouds.9 mph55%29.91 "Hg10 mi
4:56 PM90 °FSunny.9 mph52%29.93 "Hg10 mi
3:56 PM91 °FScattered clouds.9 mph50%29.94 "Hg10 mi
2:56 PM89 °FScattered clouds.5 mph55%29.96 "Hg10 mi
1:56 PM89 °FSunny.10 mph52%29.97 "Hg10 mi
12:56 PM88 °FSunny.9 mph50%29.99 "Hg10 mi
11:56 AM88 °FPassing clouds.6 mph54%30.00 "Hg10 mi
10:56 AM85 °FSunny.5 mph59%30.01 "Hg10 mi
9:56 AM82 °FSunny.5 mph67%30.01 "Hg9 mi
8:56 AM79 °FSunny.No wind72%30.01 "Hg7 mi
7:56 AM75 °FSunny.No wind76%30.00 "Hg8 mi
6:56 AM70 °FFog.No wind90%29.99 "Hg6 mi
5:56 AM69 °FFog.No wind90%29.98 "Hg5 mi
4:56 AM69 °FFog.3 mph90%29.98 "Hg6 mi
Weather by CustomWeather, © 2015

See weather overviewHow to use our weather pages